GW3950 Weather Reports


time (UTC)temp
F
wind
direction
speed
knots
gust
knots
rain 1hr
in
rain 24hr
in
rain mn
in
humidity
%
barometer
mb
20260509150624 76 325 3.5 8.7 0.00 0.00 0.00 66 1008.9
20260509145609 75 311 4.3 7.8 0.00 0.00 0.00 66 1009.1
20260509143452 73 329 3.5 7.0 0.00 0.00 0.00 73 1009.1
20260509142437 72 319 2.6 7.0 0.00 0.00 0.00 77 1009.1
20260509141449 71 293 1.7 6.1 0.00 0.00 0.00 80 1009.2
20260509140432 71 293 2.6 7.0 0.00 0.00 0.00 81 1009.4
20260509135404 70 292 3.5 7.0 0.00 0.00 0.00 82 1009.3
20260509133241 69 317 3.5 6.1 0.00 0.00 0.00 83 1009.3
20260509132227 68 292 2.6 6.1 0.00 0.00 0.00 83 1009.3
20260509130120 66 276 0.0 2.6 0.00 0.00 0.00 84 1009.5
20260509125112 66 309 0.0 4.3 0.00 0.00 0.00 84 1009.3
20260509124102 65 323 1.7 4.3 0.00 0.00 0.00 84 1009.2
20260509123124 65 313 0.9 2.6 0.00 0.00 0.00 85 1009.1
20260509122123 64 312 0.0 2.6 0.00 0.00 0.00 84 1009.1
20260509121144 64 329 0.0 0.0 0.00 0.01 0.00 84 1008.9
20260509120204 64 329 0.9 2.6 0.00 0.06 0.00 84 1008.8
20260509114028 64 310 0.9 2.6 0.00 0.06 0.00 81 1008.4
20260509113037 64 310 0.9 2.6 0.00 0.06 0.00 80 1008.2
20260509112027 65 310 0.0 1.7 0.00 0.06 0.00 78 1008.0
20260509111006 66 252 0.0 0.0 0.00 0.06 0.00 76 1007.9
20260509110027 67 252 0.0 0.0 0.00 0.06 0.00 74 1007.8
20260509103910 68 252 0.9 0.0 0.00 0.08 0.00 74 1008.0
20260509102911 68 290 2.6 7.0 0.00 0.08 0.00 73 1008.1
20260509101920 69 286 1.7 5.2 0.00 0.08 0.00 73 1008.3
20260509095750 69 263 2.6 10.4 0.00 0.08 0.00 74 1008.3
20260509094808 69 311 3.5 7.0 0.00 0.11 0.00 73 1007.9
20260509093743 69 301 1.7 4.3 0.00 0.14 0.00 70 1007.5
20260509092802 70 326 3.5 9.6 0.00 0.14 0.00 65 1007.1
20260509091810 70 348 3.5 14.8 0.00 0.14 0.00 63 1006.1
20260509090739 69 51 6.1 14.8 0.00 0.14 0.00 64 1005.5
20260509085706 68 151 5.2 9.6 0.00 0.14 0.00 67 1004.4
20260509084713 69 155 5.2 8.7 0.00 0.14 0.00 65 1004.2
20260509083721 70 139 4.3 7.0 0.00 0.14 0.00 62 1004.3
20260509082704 70 200 3.5 7.0 0.00 0.14 0.00 61 1004.9
20260509075347 70 5 0.9 8.7 0.00 0.14 0.00 67 1005.5
20260509074401 71 24 0.0 3.5 0.00 0.14 0.00 67 1006.4
20260509073332 71 292 1.7 8.7 0.00 0.14 0.00 66 1007.2
20260509070108 68 196 5.2 12.2 0.00 0.14 0.00 75 1008.9
20260509065119 68 237 5.2 12.2 0.00 0.14 0.00 86 1009.3
20260509064112 69 202 3.5 8.7 0.00 0.19 0.00 90 1010.0
20260509063059 69 252 2.6 8.7 0.00 0.22 0.00 91 1010.4
20260509062051 68 279 1.7 6.1 0.00 0.24 0.00 91 1010.5
20260509061105 68 277 2.6 6.1 0.00 0.24 0.00 91 1010.2
20260509060056 68 305 0.9 5.2 0.00 0.24 0.00 90 1010.4
20260509055024 68 331 0.9 2.6 0.00 0.24 0.00 90 1010.3
20260509054017 69 174 0.9 2.6 0.00 0.24 0.00 90 1009.6
20260509052947 69 306 0.9 4.3 0.00 0.24 0.00 90 1010.0
20260509051931 69 0 2.6 4.3 0.00 0.24 0.00 90 1010.1
20260509050910 68 355 1.7 4.3 0.00 0.24 0.00 90 1009.9
20260509045933 68 165 0.0 0.9 0.00 0.24 0.25 90 1009.3
20260509044942 69 165 1.7 4.3 0.00 0.24 0.25 90 1008.6
20260509042827 69 176 2.6 4.3 0.00 0.24 0.25 89 1008.4
20260509041840 69 148 1.7 4.3 0.00 0.24 0.25 89 1008.4
20260509040812 69 127 1.7 5.2 0.00 0.24 0.25 88 1008.4
20260509035740 69 121 0.9 5.2 0.00 0.24 0.25 88 1008.5
20260509034725 69 61 1.7 2.6 0.00 0.24 0.25 88 1008.5
20260509032640 69 134 1.7 4.3 0.00 0.24 0.25 87 1007.7
20260509030503 70 159 3.5 7.8 0.00 0.24 0.25 87 1007.3
20260509025528 70 163 4.3 9.6 0.00 0.24 0.25 87 1006.8
20260509024502 70 155 5.2 9.6 0.00 0.24 0.25 86 1006.4
20260509023439 70 169 5.2 10.4 0.00 0.24 0.25 86 1006.3
20260509022412 70 163 5.2 10.4 0.00 0.24 0.25 86 1006.3
20260509021350 70 169 5.2 8.7 0.00 0.24 0.25 85 1006.0
20260509020316 70 140 5.2 7.8 0.00 0.24 0.25 85 1006.0
20260509015250 71 132 2.6 4.3 0.00 0.24 0.25 84 1006.2
20260509014300 71 146 0.9 3.5 0.00 0.24 0.25 83 1006.5
20260509013241 71 121 1.7 3.5 0.00 0.24 0.25 83 1006.7
20260509012214 71 128 2.6 7.0 0.00 0.24 0.25 83 1006.5
20260509001543 73 158 7.0 11.3 0.00 0.24 0.25 79 1006.0
20260509000525 73 157 5.2 10.4 0.00 0.24 0.25 78 1006.1
20260508235511 73 153 5.2 10.4 0.00 0.24 0.25 78 1006.3
20260508233420 73 160 3.5 7.8 0.00 0.24 0.25 79 1006.5
20260508231217 73 168 4.3 8.7 0.00 0.24 0.25 78 1006.6
20260508230238 73 182 6.1 9.6 0.00 0.24 0.25 77 1006.6
20260508224036 74 153 6.1 11.3 0.00 0.24 0.25 76 1006.6
20260508223053 74 188 7.0 9.6 0.00 0.24 0.25 76 1006.8
20260508222059 74 149 5.2 12.2 0.00 0.24 0.25 75 1006.6
20260508221047 74 118 7.0 13.0 0.00 0.24 0.25 74 1006.7
20260508220052 74 152 7.8 13.9 0.00 0.24 0.25 75 1006.7
20260508215024 74 132 8.7 13.9 0.00 0.24 0.25 73 1006.7
20260508214003 75 161 8.7 13.9 0.00 0.24 0.25 72 1006.8
20260508213010 75 129 7.8 15.6 0.00 0.24 0.25 71 1006.9
20260508212031 75 138 8.7 15.6 0.00 0.24 0.25 69 1007.0
20260508211029 76 171 7.0 12.2 0.00 0.24 0.25 69 1007.2
20260508204843 76 147 5.2 11.3 0.00 0.24 0.25 70 1007.4
20260508203844 75 155 6.1 11.3 0.00 0.24 0.25 70 1007.5
20260508202900 75 58 4.3 9.6 0.00 0.24 0.25 68 1007.9
20260508201842 75 169 5.2 10.4 0.00 0.24 0.25 70 1008.2
20260508194629 72 123 4.3 7.8 0.00 0.24 0.25 73 1009.1
20260508193603 70 163 6.1 10.4 0.00 0.24 0.25 74 1009.4
20260508191525 72 148 7.8 11.3 0.00 0.24 0.25 71 1009.4
20260508190459 72 190 7.0 13.0 0.00 0.24 0.25 72 1009.4
20260508185425 72 128 7.0 13.0 0.00 0.24 0.25 72 1009.4
20260508184440 72 153 6.1 10.4 0.00 0.24 0.25 72 1009.5
20260508183422 72 126 4.3 10.4 0.00 0.24 0.25 70 1009.6
20260508182405 73 134 4.3 8.7 0.00 0.24 0.25 70 1009.7
20260508181342 73 157 4.3 8.7 0.00 0.24 0.25 70 1009.9
20260508180327 72 161 3.5 9.6 0.00 0.24 0.25 70 1010.0
20260508175342 71 153 5.2 9.6 0.00 0.24 0.25 73 1010.1
20260508174311 71 150 7.0 10.4 0.00 0.24 0.25 72 1010.3
20260508173243 71 132 7.0 10.4 0.00 0.24 0.25 72 1010.6
20260508171144 71 147 4.3 10.4 0.00 0.24 0.25 70 1010.9
20260508170121 71 165 4.3 9.6 0.00 0.24 0.25 68 1010.9
20260508162856 69 133 5.2 8.7 0.00 0.24 0.25 72 1011.6
20260508161902 69 132 6.1 8.7 0.00 0.24 0.25 71 1011.8
20260508160922 69 189 6.1 9.6 0.00 0.24 0.25 72 1011.8
20260508155931 70 155 6.1 11.3 0.00 0.24 0.25 73 1011.8
20260508153829 69 171 4.3 7.8 0.00 0.24 0.25 75 1011.9
20260508151723 69 120 1.7 5.2 0.00 0.24 0.25 75 1012.1